Regional Weather Roundup
Issued by NWS

Home | Current Version | Previous Version | Graphics & Text | Print | Product List | Glossary On
Versions: 1 2 3 4 5 6 7 8 9 10 11 12 13 14 15 16 17 18 19 20 21 22 23 24 25 26 27 28 29 30 31 32 33 34 35 36 37 38 39 40 41 42 43 44 45 46 47 48 49 50
000
ASUS43 KBIS 221420
RWRND

NORTH DAKOTA REGIONAL WEATHER ROUNDUP
NATIONAL WEATHER SERVICE BISMARCK ND
800 AM CST SAT NOV 22 2014

NOTE: "FAIR" INDICATES FEW OR NO CLOUDS BELOW 12,000 FEET WITH NO
SIGNIFICANT WEATHER AND/OR OBSTRUCTIONS TO VISIBILITY.


NDZ001>003-009>011-017-221500-
NORTHWEST NORTH DAKOTA

CITY           SKY/WX    TMP DP  RH WIND       PRES   REMARKS
WILLISTON      CLOUDY    30  27  88 W3        29.42F
MINOT          PTCLDY    25  22  88 SE6       29.47F WCI  18
MINOT AFB      PTCLDY    20  20  98 S7        29.47F WCI  11
$$

NDZ018>021-031>035-040>046-221500-
SOUTHWEST NORTH DAKOTA

CITY           SKY/WX    TMP DP  RH WIND       PRES   REMARKS
BISMARCK       CLEAR     25  22  88 CALM      29.54F
DICKINSON      CLOUDY    33  25  72 S10       29.43F
GARRISON         N/A     30  27  88 SE6       29.48F
HETTINGER ARPT CLOUDY    26  21  81 E3        29.48F
$$

NDZ004>008-012>016-024-026-027-054-221500-
NORTHEAST NORTH DAKOTA

CITY           SKY/WX    TMP DP  RH WIND       PRES   REMARKS
GRAND FORKS    PTCLDY    19  16  88 S6        29.60R WCI  11
DEVILS LAKE    CLEAR     25  16  68 SE6       29.53F WCI  18
$$

NDZ022-023-025-028>030-036>039-047>053-221500-
SOUTHEAST NORTH DAKOTA

CITY           SKY/WX    TMP DP  RH WIND       PRES   REMARKS
FARGO          CLEAR     23  20  88 S5        29.64S WCI  17
JAMESTOWN      CLEAR     23  21  92 S5        29.56F WCI  17
$$



USA.gov is the U.S. government's official web portal to all federal, state and local government web resources and services.